Wind_Speed
17 18 18 19 20 20 20 17 13 13 13 14 15 16 17 15 15 15 14 13 14 16 17 18 17 17 15 16 15 14 15 15 14 13 14 14 12 13 14 16 14 12 9
20 20 18 18 19 19 18 14 12 11 11 12 13 15 15 15 14 15 14 13 14 14 15 16 17 17 16 17 19 19 18 17 15 15 13 13 12 13 13 11 12 11 11
20 18 17 16 17 17 15 13 12 11 10 12 13 13 13 16 17 16 15 15 14 13 14 15 16 17 19 19 21 20 19 19 19 17 15 15 15 13 14 14 12 12 11
22 20 17 15 16 15 13 13 13 10 9 11 11 12 13 14 15 16 15 14 14 14 15 17 18 19 21 22 21 20 21 22 22 19 17 18 17 16 16 17 16 15 15
22 20 17 15 16 14 12 12 12 11 11 10 10 11 12 10 12 15 16 16 15 16 17 18 19 19 21 21 22 23 23 24 24 23 20 20 20 19 20 20 21 21 21
22 19 17 14 15 13 12 12 12 11 11 12 11 12 12 12 11 12 17 19 19 19 20 21 22 23 23 23 24 24 26 26 26 24 23 23 24 21 23 26 26 27 26
22 16 14 16 15 13 12 12 12 12 12 12 11 12 13 14 14 15 16 17 19 21 22 23 23 23 23 23 24 25 25 25 23 23 25 26 27 27 27 31 33 32 32
19 15 17 17 16 13 13 12 12 13 12 12 12 13 13 15 16 18 20 20 21 22 22 23 23 23 24 26 25 25 24 25 25 26 27 29 30 32 32 33 35 36 36
17 17 17 17 17 15 14 12 14 13 11 10 10 12 13 14 17 18 20 22 24 26 26 26 26 27 26 26 26 27 28 29 30 31 32 33 35 36 36 37 38 39 41
17 21 17 19 18 17 15 13 14 13 11 9 10 11 12 13 14 16 19 21 24 26 27 27 27 27 28 29 29 30 31 32 34 34 36 38 40 40 42 42 43 46 45
21 23 20 20 21 18 17 15 15 15 13 12 13 14 14 15 16 17 18 18 20 22 24 25 26 27 28 29 31 32 33 34 35 37 40 42 44 44 45 44 42 39 37
22 22 22 22 23 20 18 16 16 16 16 17 18 18 19 20 20 19 20 21 21 21 22 22 24 26 28 30 31 33 34 36 38 40 41 43 43 39 36 35 34 33 33
24 24 24 24 26 23 21 19 18 18 19 20 22 26 27 26 25 24 23 23 24 25 25 26 27 28 30 32 34 35 37 37 38 37 36 36 36 34 33 32 32 32 32
25 24 24 24 25 25 22 22 20 19 22 24 25 28 31 31 31 29 27 27 28 29 29 30 32 33 34 35 36 36 37 37 36 34 33 33 34 35 34 35 35 36 37
24 24 24 24 25 25 25 26 25 25 25 27 26 30 32 33 34 34 33 31 30 31 32 35 36 36 37 37 38 36 36 35 34 34 35 35 36 36 37 38 39 40 40
22 24 24 25 25 25 27 27 26 25 26 29 30 32 33 34 37 36 34 32 33 35 36 37 37 34 33 32 32 32 31 32 35 36 36 36 37 38 39 39 41 42 43
25 24 25 25 24 25 26 26 25 27 29 31 30 34 36 33 29 32 32 32 35 36 37 36 34 32 30 30 30 31 32 33 35 38 38 40 41 41 41 42 43 45 48
25 24 25 24 25 25 25 24 24 26 29 30 33 36 31 29 29 29 31 32 35 36 36 35 34 34 34 33 32 33 34 36 37 38 40 41 43 44 45 47 49 50 51
25 25 24 22 24 23 22 23 25 27 30 33 35 30 29 30 30 32 33 34 36 37 36 35 36 35 35 34 35 36 37 38 39 41 42 44 46 48 51 53 56 58 59
27 26 25 23 22 21 23 25 26 29 31 33 30 29 32 32 35 36 36 38 40 39 36 34 34 36 36 37 37 37 39 41 42 44 46 50 53 55 58 60 61 63 64
28 27 26 25 23 22 25 28 30 30 33 31 30 31 34 37 37 37 39 42 41 39 37 37 37 38 39 39 39 40 43 47 48 51 55 57 60 62 64 66 67 68 69
28 27 26 27 25 25 27 30 31 33 34 30 30 34 38 40 39 40 42 41 39 39 40 40 39 39 42 44 45 47 47 49 53 56 60 62 64 65 67 69 71 73 75
28 27 27 27 27 29 30 31 33 34 29 28 32 36 38 40 41 42 42 42 40 39 39 40 42 43 46 50 53 56 58 60 60 60 62 65 67 68 71 73 75 77 79
28 27 28 27 28 30 30 31 31 30 30 31 34 37 40 42 42 43 41 40 40 40 41 44 47 50 52 54 57 61 66 71 73 71 69 69 71 73 74 75 78 81 83
27 27 27 28 30 30 30 31 31 31 35 38 39 40 40 42 43 40 40 40 41 43 45 48 50 53 56 58 62 64 66 69 72 76 77 77 77 76 77 78 81 84 87
27 27 27 28 30 30 32 33 34 36 37 38 38 39 40 40 39 40 40 42 44 46 48 50 53 55 59 62 65 68 71 72 73 75 77 78 80 80 82 84 88 93 96
Wind_Direction
275 278 282 287 294 302 310 313 312 305 303 298 285 282 269 267 266 267 268 265 261 257 261 259 261 267 266 268 267 269 273 277 280 282 284 291 300 313 324 337 323 319 311
283 286 289 293 300 307 311 321 320 316 314 308 304 291 276 264 265 262 264 264 263 259 262 265 266 266 268 268 268 270 272 274 276 278 279 285 291 298 303 316 337 333 324
280 283 283 290 300 303 307 312 318 307 302 302 300 303 286 267 260 252 252 260 261 262 266 270 271 268 268 268 270 271 269 273 272 272 273 272 273 283 294 300 308 315 323
278 278 279 286 294 293 303 311 313 313 306 314 303 299 299 279 261 249 248 253 259 262 267 273 274 274 272 270 269 269 270 273 275 266 268 270 273 280 282 289 291 292 295
272 270 268 276 286 282 296 305 308 304 298 307 300 294 304 308 272 254 250 253 258 264 269 274 275 277 278 279 276 269 267 267 269 261 262 266 268 272 281 283 282 280 280
269 272 266 267 271 269 287 294 300 297 298 294 296 292 287 297 297 273 258 258 263 267 272 272 271 273 275 274 273 269 266 264 265 260 259 263 269 271 276 279 278 278 277
271 259 244 255 255 261 271 290 292 292 295 295 289 284 281 278 282 284 278 269 267 268 270 270 270 269 270 270 270 267 266 267 269 266 263 265 270 274 278 281 282 279 279
267 252 244 248 247 256 264 280 287 288 293 293 290 283 280 276 272 270 273 274 272 272 273 273 275 275 272 268 267 268 268 270 271 271 271 271 274 276 277 279 279 282 281
251 239 241 238 239 251 258 265 276 282 291 296 295 291 285 281 280 279 277 275 276 275 274 276 277 277 278 278 276 275 275 275 276 276 276 277 277 276 276 276 274 275 277
246 231 237 234 235 246 251 261 271 275 279 295 309 311 312 312 305 295 288 284 279 275 274 274 275 277 279 280 279 277 276 277 276 278 280 279 279 280 281 282 282 281 277
255 224 238 236 235 243 246 254 259 259 272 290 300 308 318 321 319 311 304 300 293 288 282 280 279 278 277 276 276 277 277 278 281 281 282 283 283 285 283 284 284 280 280
264 240 228 237 242 244 247 254 261 262 274 283 295 299 303 308 308 308 304 300 297 294 292 289 287 285 284 282 280 281 282 282 281 283 285 285 285 285 285 283 282 281 280
265 249 236 230 232 241 248 252 262 267 275 281 285 291 298 303 303 303 300 298 293 290 290 290 289 289 288 286 286 285 285 287 287 286 286 285 285 284 285 286 286 286 285
258 253 248 247 238 240 238 242 259 270 279 285 284 289 291 293 297 297 297 292 291 293 293 294 292 290 289 289 288 287 287 287 288 286 286 284 285 286 287 287 287 286 284
253 255 253 252 248 245 245 247 254 264 276 278 284 286 288 289 291 295 294 292 292 289 291 291 290 288 287 286 286 287 287 287 286 286 284 284 285 286 286 284 281 279 280
254 252 249 253 251 249 246 254 262 269 278 289 294 298 297 296 288 289 293 293 294 295 296 296 292 288 285 286 288 289 288 287 286 285 284 285 282 279 279 281 281 281 278
258 255 253 251 250 252 252 256 268 276 285 291 293 297 299 294 296 291 293 298 299 300 300 297 294 292 292 291 288 286 286 285 285 285 285 283 282 282 281 279 278 279 279
260 255 248 249 250 254 262 268 276 285 288 292 296 301 299 295 297 293 296 299 301 303 300 298 296 295 293 291 289 288 287 286 285 283 283 284 284 284 283 280 280 280 280
260 254 246 249 256 260 264 268 278 285 292 298 302 299 296 298 300 300 300 300 302 303 300 298 296 294 292 290 289 288 287 288 287 287 288 287 286 285 284 284 284 283 281
260 253 243 253 261 261 263 272 282 294 301 303 300 296 301 301 302 301 302 304 305 303 298 294 290 288 287 287 288 288 289 290 290 290 290 289 288 288 287 286 284 282 281
257 252 245 252 257 263 268 279 287 294 300 299 291 292 297 297 298 299 302 302 301 299 296 293 293 293 292 292 292 293 294 293 292 292 291 292 291 290 290 290 288 287 286
257 256 251 249 258 267 276 283 291 295 295 291 288 287 291 295 297 300 300 299 299 297 296 296 296 297 297 295 293 292 290 290 292 293 293 293 291 289 288 288 287 287 286
255 256 250 250 258 265 276 284 290 295 291 290 287 290 294 296 298 299 300 301 299 297 297 298 298 297 296 297 297 297 296 294 292 291 290 290 290 289 289 288 287 287 288
252 254 250 251 259 267 275 285 295 299 296 294 294 295 295 297 298 299 300 300 299 299 299 298 298 300 301 301 301 301 300 299 298 295 295 294 293 292 291 291 292 291 289
251 256 255 257 261 267 276 285 293 298 298 296 295 295 297 298 300 303 301 299 299 299 300 301 302 302 302 301 300 299 299 299 299 299 299 298 295 296 297 296 296 295 294
251 255 254 255 261 269 278 286 292 293 294 295 295 296 298 299 301 299 299 300 301 301 302 302 302 302 303 303 303 302 301 300 299 298 296 295 296 299 301 301 301 299 297
Height
5864 5865 5865 5865 5865 5865 5864 5862 5861 5860 5859 5859 5859 5859 5859 5860 5860 5860 5861 5862 5863 5863 5863 5864 5863 5864 5863 5863 5862 5861 5860 5859 5858 5856 5856 5855 5854 5853 5851 5849 5847 5845 5843
5861 5862 5862 5862 5862 5861 5860 5859 5858 5858 5858 5857 5857 5857 5857 5857 5858 5858 5858 5858 5858 5859 5859 5860 5860 5861 5860 5860 5860 5858 5857 5856 5854 5852 5852 5851 5850 5849 5848 5847 5845 5843 5842
5859 5859 5860 5860 5860 5859 5858 5857 5856 5855 5855 5855 5855 5855 5854 5854 5854 5854 5854 5855 5855 5855 5855 5856 5856 5856 5856 5855 5855 5853 5853 5851 5850 5849 5848 5846 5845 5844 5843 5842 5841 5841 5839
5855 5856 5857 5858 5857 5857 5855 5855 5854 5853 5852 5853 5852 5852 5852 5851 5851 5851 5851 5851 5852 5852 5852 5852 5852 5852 5851 5851 5850 5849 5848 5847 5846 5845 5844 5843 5842 5839 5839 5838 5837 5837 5836
5851 5854 5855 5855 5855 5854 5853 5852 5852 5851 5851 5850 5849 5849 5849 5848 5848 5848 5848 5848 5848 5848 5848 5848 5848 5847 5846 5845 5844 5843 5843 5841 5840 5840 5838 5839 5837 5836 5834 5835 5833 5832 5832
5849 5849 5851 5852 5852 5851 5850 5850 5850 5849 5848 5848 5847 5846 5846 5845 5845 5844 5843 5843 5843 5843 5842 5842 5841 5841 5840 5839 5838 5837 5836 5835 5834 5835 5834 5833 5832 5831 5829 5829 5828 5827 5827
5845 5847 5848 5848 5848 5848 5848 5848 5848 5847 5846 5845 5844 5843 5843 5842 5842 5841 5840 5839 5838 5838 5837 5836 5835 5835 5834 5833 5832 5831 5831 5830 5830 5830 5829 5828 5827 5825 5825 5823 5822 5821 5820
5840 5842 5843 5844 5844 5844 5845 5846 5846 5845 5843 5842 5841 5840 5839 5838 5837 5837 5836 5835 5834 5834 5833 5832 5831 5830 5829 5828 5827 5827 5826 5826 5824 5824 5822 5822 5821 5819 5817 5816 5815 5813 5812
5837 5837 5839 5840 5840 5840 5842 5843 5842 5842 5840 5839 5838 5837 5836 5834 5834 5833 5832 5831 5830 5829 5828 5827 5826 5825 5824 5823 5823 5822 5820 5819 5818 5816 5815 5813 5812 5811 5809 5808 5807 5805 5803
5833 5834 5834 5836 5836 5837 5838 5839 5839 5838 5837 5836 5835 5834 5833 5831 5830 5829 5828 5826 5825 5824 5823 5821 5821 5820 5819 5818 5816 5815 5813 5812 5810 5808 5806 5804 5803 5802 5800 5798 5797 5795 5793
5828 5830 5830 5831 5832 5834 5834 5835 5835 5835 5834 5833 5832 5831 5829 5829 5827 5825 5823 5822 5820 5819 5817 5816 5815 5814 5812 5811 5810 5808 5806 5804 5802 5800 5798 5796 5794 5792 5790 5788 5786 5784 5782
5823 5825 5827 5827 5827 5830 5830 5831 5831 5831 5830 5829 5828 5827 5826 5825 5823 5821 5819 5818 5816 5815 5813 5811 5810 5808 5806 5805 5803 5801 5798 5797 5794 5792 5789 5787 5785 5782 5780 5779 5778 5776 5774
5819 5820 5821 5824 5825 5826 5826 5827 5827 5826 5826 5825 5823 5822 5822 5821 5819 5818 5816 5815 5812 5810 5808 5806 5804 5802 5800 5798 5795 5793 5791 5788 5785 5783 5781 5779 5776 5774 5772 5771 5769 5768 5766
5815 5816 5817 5819 5820 5821 5822 5823 5823 5821 5821 5820 5819 5819 5817 5815 5813 5812 5811 5808 5806 5804 5802 5799 5797 5795 5792 5790 5788 5785 5782 5780 5777 5775 5773 5771 5769 5766 5764 5763 5759 5758 5755
5812 5814 5813 5814 5814 5816 5817 5818 5818 5818 5816 5816 5814 5814 5811 5809 5807 5806 5804 5802 5800 5798 5796 5793 5790 5787 5784 5782 5779 5777 5774 5772 5769 5767 5766 5764 5762 5759 5756 5752 5749 5747 5744
5807 5809 5809 5808 5810 5812 5813 5812 5812 5812 5811 5810 5810 5808 5805 5803 5801 5799 5797 5796 5794 5792 5788 5786 5783 5779 5776 5774 5772 5769 5767 5764 5761 5760 5758 5756 5753 5749 5745 5743 5740 5737 5734
5799 5802 5803 5804 5806 5807 5807 5807 5807 5807 5806 5805 5804 5802 5799 5796 5794 5793 5791 5789 5787 5784 5781 5778 5775 5772 5770 5767 5765 5762 5759 5756 5753 5751 5748 5745 5743 5740 5736 5734 5731 5727 5722
5794 5796 5798 5799 5801 5802 5802 5802 5803 5801 5801 5799 5797 5794 5792 5790 5789 5787 5785 5782 5780 5777 5774 5771 5768 5765 5763 5760 5758 5754 5751 5748 5745 5743 5739 5735 5731 5729 5725 5721 5718 5716 5712
5789 5790 5792 5793 5795 5797 5798 5798 5797 5797 5795 5792 5790 5788 5787 5785 5783 5781 5778 5776 5773 5769 5766 5762 5759 5757 5755 5753 5750 5746 5742 5738 5736 5732 5728 5725 5721 5717 5712 5709 5705 5700 5696
5783 5785 5787 5788 5790 5792 5792 5792 5791 5791 5789 5787 5784 5783 5781 5779 5777 5775 5771 5768 5764 5760 5757 5754 5751 5747 5745 5743 5740 5737 5733 5728 5726 5722 5718 5713 5708 5704 5698 5693 5689 5684 5679
5777 5779 5781 5782 5785 5786 5786 5786 5785 5784 5782 5780 5778 5777 5775 5773 5770 5767 5763 5759 5755 5751 5748 5745 5742 5738 5734 5731 5729 5726 5722 5717 5714 5709 5704 5698 5692 5687 5681 5675 5670 5664 5660
5772 5774 5775 5777 5779 5780 5780 5779 5778 5777 5775 5774 5772 5771 5769 5766 5762 5758 5755 5751 5747 5742 5739 5735 5732 5728 5724 5719 5717 5714 5713 5709 5703 5697 5689 5683 5678 5672 5666 5660 5653 5646 5640
5766 5768 5770 5771 5773 5774 5774 5773 5772 5770 5768 5767 5765 5763 5761 5757 5753 5750 5746 5741 5738 5734 5730 5725 5721 5718 5714 5707 5701 5697 5693 5690 5688 5686 5679 5670 5664 5657 5649 5642 5635 5627 5620
5760 5762 5763 5765 5767 5768 5768 5767 5765 5763 5761 5760 5758 5755 5752 5748 5745 5741 5736 5732 5728 5724 5720 5715 5711 5706 5701 5696 5690 5682 5674 5666 5660 5660 5659 5653 5646 5639 5630 5623 5615 5607 5598
5754 5755 5756 5758 5760 5761 5761 5760 5758 5756 5755 5753 5750 5747 5743 5739 5735 5731 5727 5723 5719 5715 5710 5705 5700 5694 5688 5683 5676 5671 5664 5655 5646 5637 5633 5626 5621 5615 5609 5600 5590 5580 5570
5747 5748 5749 5751 5752 5753 5753 5752 5751 5749 5747 5744 5741 5738 5735 5731 5726 5723 5718 5714 5710 5706 5700 5695 5689 5683 5676 5669 5661 5652 5644 5636 5629 5621 5614 5610 5601 5593 5583 5572 5560 5549 5537